Tracking 19279 objects as of 14-Nov-2018
HD Live streaming from Space Station
objects crossing your sky now

MOLNIYA 1-75

Track MOLNIYA 1-75 now!
MOLNIYA 1-75 is classified as:


NORAD ID: 19807
Int'l Code: 1989-014A
Perigee: 1,765.1 km
Apogee: 38,634.1 km
Inclination: 64.0 °
Period: 718.4 minutes
Semi major axis: 26570 km
RCS: 12.6191 m2 (large)
Launch date: February 15, 1989
Source: Commonwealth of Independent States (former USSR) (CIS)
Launch site: TYURATAM MISSILE AND SPACE COMPLEX (TTMTR)
aabbcc
Your satellite tracking list
Your tracking list is empty




NASA's NSSDC Master Catalog

Two Line Element Set (TLE):
1 19807U 89014A   18316.08428925 +.00000863 +00000-0 -51513-1 0  9998
2 19807 064.0162 081.8006 6937928 274.6364 015.8650 02.00447832217741
Source of the keplerian elements: AFSPC